Location: *
(44.3925°N, 5.4708°E)
Time: 21:26:54
(UTC+00:00)

COSMOS 2455 - Pass Details

Date: 18 September 2019
Orbit: 900 x 909 km, 67.1° (Epoch: 17 October)

Event Time Altitude Azimuth Distance (km) Brightness Sun altitude
Rises 18:13:44 0° 328° (NNW) 3,548 6.6 -6.1°
Reaches altitude 10° 18:16:15 10° 328° (NNW) 2,602 5.9 -6.6°
Maximum altitude 18:22:19 87° 241° (WSW) 915 2.9 -7.7°
Drops below altitude 10° 18:28:19 10° 152° (SSE) 2,581 4.9 -8.7°
Sets 18:30:49 0° 152° (SSE) 3,517 5.5 -9.1°
